1515790800.84,11809,9.44,73620.0,-10.27,-41.99,-42.05,0,*63
1515790802.1,11810,9.44,73622.3,-10.27,-42.05,-42.05,0,*6D
1515790803.34,11811,9.44,73620.5,-10.29,-42.13,-42.13,0,*62
1515790804.59,11812,9.44,73624.5,-10.29,-42.25,-42.13,0,*64
1515790805.85,11813,9.44,73624.8,-10.29,-41.99,-41.81,0,*69
1515790807.09,11814,9.44,73622.8,-10.29,-41.99,-41.87,0,*68
1515790808.33,11815,9.44,73622.3,-10.29,-41.99,-41.99,0,*66
1515790809.6,11816,9.44,73622.0,-10.29,-41.99,-41.81,0,*6C
1515790810.88,11817,9.44,73618.5,-10.29,-42.05,-42.05,0,*64
1515790812.13,11818,9.44,73616.3,-10.29,-41.61,-41.41,0,*69
1515790813.34,11819,9.44,73616.5,-10.27,-41.73,-41.61,0,*67
1515790814.6,11820,9.44,73620.8,-10.29,-41.99,-41.81,0,*69
1515790815.86,11821,9.44,73618.8,-10.27,-42.05,-41.93,0,*63
1515790817.09,11822,9.44,73620.8,-10.27,-41.99,-41.81,0,*65
1515790818.32,11823,9.44,73620.5,-10.27,-41.99,-41.93,0,*67
1515790819.56,11824,9.44,73620.3,-10.27,-42.25,-42.05,0,*68
1515790820.77,11825,9.44,73624.5,-10.27,-41.99,-41.73,0,*6F
1515790822.04,11826,9.44,73622.8,-10.29,-41.99,-41.67,0,*67
1515790823.31,11827,9.44,73622.0,-10.27,-41.93,-41.81,0,*6A
1515790824.54,11828,9.44,73620.8,-10.27,-42.05,-41.99,0,*60
1515790825.79,11829,9.44,73622.5,-10.27,-42.25,-42.19,0,*68
1515790827.07,11830,9.44,73622.0,-10.29,-42.05,-42.05,0,*61
1515790828.3,11831,9.44,73622.0,-10.27,-41.99,-41.93,0,*64
1515790829.56,11832,9.44,73620.0,-10.27,-42.05,-42.05,0,*6D
1515790830.83,11833,9.44,73620.3,-10.29,-42.13,-42.05,0,*65
1515790832.06,11834,9.44,73624.0,-10.27,-41.99,-41.81,0,*62
1515790833.3,11835,9.44,73624.3,-10.27,-42.05,-41.99,0,*6C
1515790834.56,11836,9.44,73624.0,-10.29,-42.05,-41.87,0,*6E
1515790835.83,11837,9.44,73626.0,-10.27,-42.05,-42.19,0,*65
1515790837.1,11838,9.44,73630.3,-10.29,-42.25,-42.05,0,*6B
1515790838.31,11839,9.44,73628.0,-10.27,-41.99,-41.99,0,*66
1515790839.54,11840,9.44,73626.8,-10.27,-42.05,-41.99,0,*6E
1515790840.75,11841,9.44,73628.3,-10.27,-41.99,-41.73,0,*6D
1515790842.0,11842,9.44,73626.3,-10.29,-41.99,-41.87,0,*6B
1515790843.24,11843,9.44,73630.5,-10.27,-41.93,-41.73,0,*65
1515790844.5,11844,9.44,73628.3,-10.27,-41.93,-41.81,0,*6F
1515790845.76,11845,9.44,73626.8,-10.27,-42.19,-42.05,0,*60
1515790847.03,11846,9.44,73624.8,-10.27,-42.19,-42.19,0,*6E
1515790848.29,11847,9.44,73626.0,-10.29,-42.45,-42.13,0,*62
1515790849.54,11848,9.44,73620.8,-10.29,-42.13,-41.99,0,*6F
1515790850.77,11849,9.44,73624.8,-10.27,-42.05,-41.99,0,*67
1515790852.07,11850,9.44,73622.0,-10.29,-42.45,-42.31,0,*64
1515790853.33,11851,9.44,73620.8,-10.27,-42.57,-42.57,0,*68
1515790854.57,11852,9.44,73624.8,-10.29,-42.51,-42.51,0,*65
1515790855.84,11853,9.44,73624.5,-10.29,-42.69,-42.63,0,*6E
1515790857.1,11854,9.44,73620.8,-10.29,-42.63,-42.45,0,*67
1515790858.33,11855,9.44,73620.3,-10.27,-42.57,-42.37,0,*6A
1515790859.59,11856,9.44,73620.3,-10.27,-42.57,-42.57,0,*6F
1515790860.86,11857,9.44,73620.3,-10.29,-42.69,-42.63,0,*6A
1515790862.1,11858,9.44,73616.5,-10.31,-42.69,-42.63,0,*6C
1515790863.34,11859,9.44,73622.0,-10.31,-42.83,-42.63,0,*69
1515790864.58,11860,9.44,73622.0,-10.31,-42.51,-42.45,0,*68
1515790865.82,11861,9.44,73622.3,-10.31,-42.69,-42.63,0,*66
1515790867.06,11862,9.44,73622.0,-10.31,-42.83,-42.63,0,*61
1515790868.3,11863,9.44,73618.8,-10.31,-42.69,-42.51,0,*65
1515790869.54,11864,9.44,73616.3,-10.33,-42.13,-42.13,0,*6B
1515790870.78,11865,9.44,73620.0,-10.33,-42.13,-41.73,0,*6F
1515790872.02,11866,9.44,73620.3,-10.31,-41.99,-41.67,0,*6A
1515790873.29,11867,9.44,73616.8,-10.33,-42.05,-41.87,0,*61
1515790874.54,11868,9.44,73616.5,-10.31,-41.87,-41.67,0,*6B
1515790875.77,11869,9.44,73622.3,-10.31,-42.05,-41.99,0,*62
1515790877.01,11870,9.44,73622.5,-10.31,-42.05,-41.87,0,*65
1515790878.25,11871,9.44,73616.5,-10.31,-42.25,-42.05,0,*6F
1515790879.54,11872,9.44,73622.0,-10.29,-42.31,-42.05,0,*60
1515790880.77,11873,9.44,73618.5,-10.31,-42.51,-42.45,0,*6A
1515790882.04,11874,9.44,73620.3,-10.31,-42.45,-42.31,0,*6B
1515790883.25,11875,9.44,73622.0,-10.31,-42.25,-42.13,0,*6C
1515790884.49,11876,9.44,73618.3,-10.31,-42.25,-42.05,0,*68
1515790885.76,11877,9.44,73618.5,-10.33,-42.37,-42.19,0,*65
1515790887.02,11878,9.44,73620.3,-10.31,-42.45,-42.45,0,*64
1515790888.25,11879,9.44,73618.8,-10.31,-42.45,-42.25,0,*63
1515790889.49,11880,9.44,73616.8,-10.31,-42.51,-42.31,0,*65
1515790890.73,11881,9.44,73620.5,-10.31,-42.69,-42.51,0,*69
1515790892.0,11882,9.44,73620.3,-10.33,-42.57,-42.51,0,*65
1515790893.29,11883,9.44,73620.3,-10.33,-42.31,-42.31,0,*62
1515790894.54,11884,9.44,73620.0,-10.31,-42.51,-42.31,0,*61
1515790895.77,11885,9.44,73620.8,-10.33,-42.37,-42.37,0,*64
1515790897.01,11886,9.44,73620.0,-10.33,-42.51,-42.37,0,*67
1515790898.22,11887,9.44,73622.3,-10.31,-42.25,-42.13,0,*61
1515790899.49,11888,9.44,73622.8,-10.33,-42.31,-42.13,0,*69
1515790900.75,11889,9.44,73620.8,-10.33,-42.31,-42.13,0,*68
1515790902.02,11890,9.44,73626.5,-10.33,-42.51,-42.31,0,*66
1515790903.31,11891,9.44,73616.0,-10.33,-42.69,-42.57,0,*6C
1515790904.57,11892,9.44,73618.5,-10.33,-42.75,-42.57,0,*62
1515790905.79,11893,9.44,73616.0,-10.31,-42.89,-42.63,0,*65
1515790907.06,11894,9.44,73622.5,-10.33,-42.95,-42.75,0,*6A
1515790908.29,11895,9.44,73622.8,-10.31,-42.63,-42.45,0,*63
1515790909.55,11896,9.44,73616.5,-10.35,-42.69,-42.57,0,*6D
1515790910.79,11897,9.44,73620.0,-10.35,-42.75,-42.69,0,*6C
1515790912.06,11898,9.44,73622.5,-10.35,-42.69,-42.69,0,*6E
1515790913.3,11899,9.44,73620.3,-10.35,-42.51,-42.31,0,*69
1515790914.58,11900,9.44,73622.8,-10.35,-42.31,-42.19,0,*64
1515790915.85,11901,9.44,73620.0,-10.35,-42.31,-42.31,0,*6F
1515790917.08,11902,9.44,73616.8,-10.35,-42.57,-42.37,0,*6A
1515790918.3,11903,9.44,73618.8,-10.35,-42.51,-42.51,0,*6D
1515790919.56,11904,9.44,73622.3,-10.37,-42.63,-42.57,0,*6F
1515790920.83,11905,9.44,73622.5,-10.35,-42.31,-42.31,0,*6B
1515790922.07,11906,9.44,73620.0,-10.35,-42.31,-42.13,0,*68
1515790923.34,11907,9.44,73622.5,-10.35,-42.57,-42.31,0,*69
1515790924.61,11908,9.44,73620.0,-10.35,-42.31,-42.31,0,*66
1515790925.86,11909,9.44,73620.3,-10.35,-42.19,-42.13,0,*6D
1515790927.09,11910,9.44,73622.0,-10.35,-42.57,-42.37,0,*69
1515790928.3,11911,9.44,73618.0,-10.35,-42.51,-42.37,0,*6E
1515790929.55,11912,9.44,73620.8,-10.35,-42.51,-42.31,0,*6B
1515790930.79,11913,9.44,73620.3,-10.35,-42.13,-42.05,0,*6B
1515790932.03,11914,9.44,73624.3,-10.37,-42.37,-42.37,0,*69
1515790933.27,11915,9.44,73620.8,-10.35,-42.19,-42.13,0,*60
1515790934.54,11916,9.44,73622.0,-10.35,-42.31,-42.19,0,*63
1515790935.8,11917,9.44,73622.3,-10.37,-42.57,-42.37,0,*6C
1515790937.04,11918,9.44,73626.5,-10.35,-42.13,-41.93,0,*6C
1515790938.28,11919,9.44,73626.0,-10.37,-42.25,-42.13,0,*61
1515790939.56,11920,9.44,73626.3,-10.35,-42.31,-42.31,0,*6C
1515790940.8,11921,9.44,73626.0,-10.35,-42.37,-42.19,0,*61
1515790942.06,11922,9.44,73624.3,-10.35,-42.05,-41.93,0,*62
1515790943.3,11923,9.44,73626.5,-10.35,-42.37,-42.31,0,*69
1515790944.55,11924,9.44,73628.3,-10.35,-42.37,-42.31,0,*6E
1515790945.81,11925,9.44,73626.8,-10.35,-42.19,-42.05,0,*64
1515790947.06,11926,9.44,73628.8,-10.35,-42.19,-42.13,0,*60
1515790948.3,11927,9.44,73630.0,-10.35,-42.19,-42.13,0,*61
1515790949.59,11928,9.44,73630.3,-10.33,-42.31,-42.19,0,*68
1515790950.83,11929,9.44,73626.8,-10.31,-42.31,-42.25,0,*64
1515790952.12,11930,9.44,73624.8,-10.33,-42.69,-42.57,0,*66
1515790953.38,11931,9.44,73624.3,-10.33,-42.75,-42.69,0,*67
1515790954.68,11932,9.44,73626.0,-10.33,-42.31,-42.19,0,*63
1515790955.94,11933,9.44,73624.0,-10.33,-42.13,-42.05,0,*6F
1515790957.21,11934,9.44,73620.3,-10.33,-42.05,-41.87,0,*66
1515790958.49,11935,9.44,73622.3,-10.33,-42.05,-41.93,0,*62
1515790959.76,11936,9.44,73620.5,-10.31,-42.31,-42.31,0,*6F
1515790961.05,11937,9.44,73622.5,-10.33,-42.57,-42.69,0,*61
1515790962.3,11938,9.44,73618.8,-10.33,-42.57,-42.37,0,*65
1515790963.57,11939,9.44,73618.0,-10.33,-42.75,-42.69,0,*6F
1515790964.86,11940,9.44,73616.5,-10.33,-42.69,-42.57,0,*61
1515790966.1,11941,9.44,73618.3,-10.31,-42.83,-42.63,0,*61
1515790967.36,11942,9.44,73616.0,-10.33,-42.89,-42.69,0,*60
1515790968.63,11943,9.44,73618.5,-10.33,-42.75,-42.69,0,*62
1515790969.91,11944,9.44,73622.8,-10.33,-42.69,-42.57,0,*65
1515790971.17,11945,9.44,73620.8,-10.33,-42.57,-42.37,0,*6F
1515790972.43,11946,9.44,73620.3,-10.35,-42.69,-42.69,0,*6C
1515790973.68,11947,9.44,73618.8,-10.35,-42.37,-42.19,0,*61
1515790974.95,11948,9.44,73618.3,-10.35,-42.31,-42.31,0,*62
1515790976.19,11949,9.44,73614.0,-10.35,-42.19,-42.13,0,*69
1515790977.45,11950,9.44,73618.3,-10.33,-42.13,-41.93,0,*66
1515790978.69,11951,9.44,73616.5,-10.35,-42.05,-41.73,0,*68
1515790979.94,11952,9.44,73616.3,-10.35,-42.37,-42.19,0,*65
1515790981.15,11953,9.44,73616.3,-10.35,-42.51,-42.37,0,*68
1515790982.39,11954,9.44,73618.5,-10.33,-42.37,-42.13,0,*6F
1515790983.65,11955,9.44,73618.0,-10.33,-42.13,-41.93,0,*63
1515790984.94,11956,9.44,73622.8,-10.33,-42.19,-41.93,0,*6A
1515790986.2,11957,9.44,73620.5,-10.33,-42.31,-42.13,0,*6A
1515790987.47,11958,9.44,73622.3,-10.33,-42.31,-42.13,0,*65
1515790988.7,11959,9.44,73622.0,-10.31,-42.13,-42.05,0,*61
1515790989.95,11960,9.44,73620.3,-10.33,-42.13,-41.87,0,*60
1515790991.19,11961,9.44,73624.8,-10.31,-42.31,-42.25,0,*68
1515790992.43,11962,9.44,73622.3,-10.33,-42.51,-42.37,0,*6C
1515790993.66,11963,9.44,73624.0,-10.31,-42.31,-42.25,0,*6A
1515790994.92,11964,9.44,73624.5,-10.31,-42.31,-42.45,0,*6B
1515790996.16,11965,9.44,73620.3,-10.31,-42.45,-42.25,0,*6F
1515790997.4,11966,9.44,73618.8,-10.33,-42.51,-42.37,0,*68
1515790998.67,11967,9.44,73620.8,-10.33,-42.19,-42.13,0,*63
1515790999.92,11968,9.44,73620.3,-10.33,-42.57,-42.37,0,*60
1515791001.19,11969,9.44,73622.8,-10.31,-42.45,-42.31,0,*66
1515791002.46,11970,9.44,73618.8,-10.33,-42.75,-42.69,0,*62
1515791003.69,11971,9.44,73624.0,-10.31,-42.63,-42.45,0,*68
1515791004.95,11972,9.44,73626.3,-10.33,-42.69,-42.51,0,*66
1515791006.19,11973,9.44,73622.5,-10.31,-42.51,-42.45,0,*6B
1515791007.42,11974,9.44,73624.5,-10.31,-42.63,-42.45,0,*6D
1515791008.66,11975,9.44,73626.0,-10.33,-42.51,-42.37,0,*6A
1515791009.9,11976,9.44,73626.3,-10.31,-42.69,-42.51,0,*60
1515791011.14,11977,9.44,73624.8,-10.31,-42.69,-42.51,0,*61
1515791012.37,11978,9.44,73620.5,-10.31,-42.69,-42.51,0,*6E
1515791013.65,11979,9.44,73622.0,-10.33,-43.09,-42.75,0,*6C
1515791014.88,11980,9.44,73622.3,-10.33,-43.15,-42.89,0,*64
1515791016.15,11981,9.44,73620.3,-10.31,-43.09,-42.83,0,*60
1515791017.38,11982,9.44,73620.0,-10.33,-43.15,-42.89,0,*66
1515791018.65,11983,9.44,73618.0,-10.33,-43.15,-42.95,0,*6A
1515791019.92,11984,9.44,73618.5,-10.33,-43.09,-42.75,0,*6E
1515791021.19,11985,9.44,73620.0,-10.33,-42.75,-42.69,0,*68
1515791022.42,11986,9.44,73618.8,-10.35,-42.57,-42.51,0,*66
1515791023.67,11987,9.44,73620.8,-10.35,-42.69,-42.51,0,*6A
1515791024.9,11988,9.44,73618.5,-10.35,-42.57,-42.37,0,*68
1515791026.2,11989,9.44,73622.3,-10.33,-42.19,-42.19,0,*69
1515791027.43,11990,9.44,73618.3,-10.33,-42.51,-42.37,0,*61
1515791028.7,11991,9.44,73618.8,-10.33,-42.89,-42.69,0,*6E
1515791029.98,11992,9.44,73618.5,-10.33,-42.69,-42.57,0,*6E
1515791031.23,11993,9.44,73622.5,-10.33,-42.51,-42.51,0,*62
1515791032.49,11994,9.44,73622.3,-10.33,-42.75,-42.69,0,*68
1515791033.78,11995,9.44,73620.0,-10.33,-42.69,-42.57,0,*69
1515791035.04,11996,9.44,73626.3,-10.33,-42.69,-42.51,0,*6C
1515791036.33,11997,9.44,73622.3,-10.33,-42.69,-42.57,0,*6B
1515791037.59,11998,9.44,73622.3,-10.33,-42.89,-42.69,0,*67
1515791038.86,11999,9.44,73620.5,-10.33,-42.89,-42.69,0,*66
1515791040.12,12000,9.44,73622.3,-10.33,-42.75,-42.69,0,*6F
1515791041.38,12001,9.44,73622.5,-10.31,-42.83,-42.45,0,*6B
1515791042.64,12002,9.44,73620.0,-10.33,-42.57,-42.51,0,*66
1515791043.88,12003,9.44,73622.0,-10.35,-42.69,-42.51,0,*6C
1515791045.12,12004,9.44,73616.3,-10.33,-42.51,-42.37,0,*66
1515791046.39,12005,9.44,73618.8,-10.33,-42.37,-42.31,0,*61
1515791047.66,12006,9.44,73620.0,-10.33,-42.37,-42.31,0,*62
1515791048.9,12007,9.44,73620.3,-10.33,-42.75,-42.51,0,*63
1515791050.17,12008,9.44,73622.0,-10.33,-42.89,-42.69,0,*64
1515791051.44,12009,9.44,73620.3,-10.33,-42.95,-42.75,0,*65
1515791052.66,12010,9.44,73622.8,-10.35,-42.89,-42.75,0,*66
1515791053.9,12011,9.44,73620.0,-10.35,-42.95,-42.89,0,*69
1515791055.15,12012,9.44,73622.0,-10.35,-43.09,-42.89,0,*6E
1515791056.36,12013,9.44,73620.5,-10.35,-43.15,-42.75,0,*61
1515791057.58,12014,9.44,73626.0,-10.35,-43.15,-42.89,0,*65
1515791058.85,12015,9.44,73622.5,-10.37,-43.15,-42.95,0,*6B
1515791060.11,12016,9.44,73620.5,-10.37,-43.21,-43.01,0,*63
1515791061.33,12017,9.44,73616.0,-10.35,-42.89,-42.75,0,*61
1515791062.6,12018,9.44,73620.0,-10.37,-43.01,-42.83,0,*64
1515791063.86,12019,9.44,73622.8,-10.37,-42.63,-42.57,0,*69
1515791065.14,12020,9.44,73620.3,-10.37,-42.95,-42.75,0,*6A
1515791066.4,12021,9.44,73620.0,-10.35,-42.69,-42.57,0,*6A
1515791067.67,12022,9.44,73622.5,-10.37,-42.83,-42.63,0,*68
1515791068.97,12023,9.44,73624.5,-10.37,-42.95,-42.83,0,*60
1515791070.19,12024,9.44,73620.8,-10.35,-42.89,-42.75,0,*61
1515791071.48,12025,9.44,73620.8,-10.37,-42.95,-42.83,0,*66
1515791072.75,12026,9.44,73622.3,-10.37,-42.45,-42.25,0,*64
1515791074.03,12027,9.44,73624.0,-10.37,-42.95,-42.75,0,*6D
1515791075.26,12028,9.44,73620.8,-10.35,-42.57,-42.37,0,*68
1515791076.52,12029,9.44,73622.3,-10.35,-42.57,-42.57,0,*6F
1515791077.79,12030,9.44,73622.0,-10.37,-42.95,-42.51,0,*6D
1515791079.08,12031,9.44,73620.5,-10.37,-42.57,-42.57,0,*64
1515791080.34,12032,9.44,73618.3,-10.35,-42.69,-42.57,0,*68
1515791081.62,12033,9.44,73618.8,-10.37,-42.95,-42.75,0,*68
1515791082.87,12034,9.44,73618.3,-10.37,-43.01,-42.75,0,*63
1515791084.14,12035,9.44,73622.3,-10.37,-43.15,-42.95,0,*69
1515791085.44,12036,9.44,73620.0,-10.37,-43.21,-42.95,0,*6D
1515791086.73,12037,9.44,73626.5,-10.37,-43.21,-42.95,0,*6C
1515791088.0,12038,9.44,73622.5,-10.37,-43.15,-42.95,0,*64
1515791089.3,12039,9.44,73626.3,-10.37,-42.95,-42.83,0,*6B
1515791090.57,12040,9.44,73626.0,-10.37,-42.95,-42.63,0,*6B
1515791091.83,12041,9.44,73624.0,-10.37,-43.01,-42.75,0,*61
1515791093.12,12042,9.44,73624.5,-10.37,-42.95,-42.83,0,*67
1515791094.4,12043,9.44,73624.0,-10.37,-42.95,-42.63,0,*68
1515791095.67,12044,9.44,73620.5,-10.37,-42.83,-42.75,0,*6F
1515791096.94,12045,9.44,73622.3,-10.41,-42.83,-42.51,0,*69
1515791098.18,12046,9.44,73624.3,-10.37,-42.25,-42.13,0,*61
1515791099.46,12047,9.44,73626.8,-10.37,-42.25,-42.19,0,*6A
1515791100.72,12048,9.44,73628.0,-10.35,-42.31,-42.05,0,*6F
1515791101.96,12049,9.44,73626.0,-10.37,-42.63,-42.25,0,*69
1515791103.23,12050,9.44,73620.3,-10.37,-42.75,-42.57,0,*63
1515791104.46,12051,9.44,73620.8,-10.37,-42.63,-42.37,0,*63
1515791105.73,12052,9.44,73616.8,-10.37,-42.57,-42.37,0,*67
1515791106.97,12053,9.44,73616.8,-10.37,-42.37,-42.25,0,*63
1515791108.25,12054,9.44,73618.3,-10.37,-42.57,-42.45,0,*64
1515791109.52,12055,9.44,73620.3,-10.37,-42.83,-42.75,0,*6F
1515791110.8,12056,9.44,73622.0,-10.37,-43.01,-42.83,0,*6E
1515791112.09,12057,9.44,73620.5,-10.37,-42.95,-42.83,0,*63
1515791113.35,12058,9.44,73622.5,-10.37,-43.15,-42.83,0,*65
1515791114.62,12059,9.44,73616.5,-10.37,-42.75,-42.57,0,*6A
1515791115.87,12060,9.44,73618.3,-10.37,-42.75,-42.75,0,*60
1515791117.14,12061,9.44,73620.3,-10.35,-42.95,-42.69,0,*60
1515791118.39,12062,9.44,73618.0,-10.37,-43.01,-42.75,0,*60
1515791119.65,12063,9.44,73622.5,-10.37,-42.63,-42.45,0,*67
1515791120.92,12064,9.44,73620.8,-10.37,-42.63,-42.45,0,*60
1515791122.18,12065,9.44,73620.5,-10.37,-42.75,-42.57,0,*65
1515791123.45,12066,9.44,73622.5,-10.37,-42.83,-42.75,0,*6F
1515791124.73,12067,9.44,73620.5,-10.37,-42.95,-42.75,0,*69
1515791126.01,12068,9.44,73620.3,-10.37,-42.95,-42.75,0,*66
1515791127.27,12069,9.44,73618.8,-10.37,-43.21,-42.75,0,*69
1515791128.57,12070,9.44,73620.0,-10.37,-42.95,-42.83,0,*66
1515791129.83,12071,9.44,73620.3,-10.37,-43.15,-42.83,0,*6E
1515791131.07,12072,9.44,73618.8,-10.37,-42.63,-42.37,0,*62
1515791132.35,12073,9.44,73618.0,-10.37,-42.95,-42.63,0,*6B
1515791133.62,12074,9.44,73618.8,-10.35,-42.95,-42.57,0,*69
1515791134.9,12075,9.44,73620.8,-10.37,-42.83,-42.57,0,*6D
1515791136.14,12076,9.44,73620.3,-10.35,-42.75,-42.57,0,*65
1515791137.36,12077,9.44,73616.3,-10.35,-42.75,-42.51,0,*62
1515791138.57,12078,9.44,73616.3,-10.35,-42.51,-42.37,0,*6B
1515791139.83,12079,9.44,73622.3,-10.37,-42.57,-42.37,0,*6E
1515791141.1,12080,9.44,73626.3,-10.35,-42.57,-42.19,0,*66
1515791142.37,12081,9.44,73622.0,-10.37,-42.37,-42.19,0,*63
1515791143.6,12082,9.44,73624.0,-10.35,-42.57,-42.37,0,*68
1515791144.86,12083,9.44,73620.0,-10.37,-42.63,-42.45,0,*69
1515791146.13,12084,9.44,73622.3,-10.37,-42.83,-42.63,0,*64
1515791147.38,12085,9.44,73622.5,-10.35,-43.15,-42.95,0,*60
1515791148.67,12086,9.44,73622.3,-10.37,-42.95,-42.57,0,*66
1515791149.95,12087,9.44,73622.0,-10.37,-42.95,-42.75,0,*67
1515791151.19,12088,9.44,73624.5,-10.35,-42.51,-42.19,0,*68
1515791152.46,12089,9.44,73626.3,-10.37,-42.45,-42.13,0,*64
1515791153.72,12090,9.44,73624.3,-10.35,-42.69,-42.57,0,*60
1515791154.96,12091,9.44,73626.3,-10.35,-42.57,-42.51,0,*6A
1515791156.2,12092,9.44,73624.0,-10.35,-42.37,-42.19,0,*63
1515791157.41,12093,9.44,73622.0,-10.35,-42.37,-42.13,0,*68
1515791158.66,12094,9.44,73620.3,-10.35,-42.37,-42.19,0,*65
1515791159.87,12095,9.44,73622.3,-10.35,-42.75,-42.51,0,*6E
1515791161.14,12096,9.44,73624.8,-10.35,-42.95,-42.69,0,*68
1515791162.39,12097,9.44,73622.8,-10.35,-43.09,-42.75,0,*60
1515791163.63,12098,9.44,73624.8,-10.35,-42.69,-42.51,0,*6E
1515791164.88,12099,9.44,73626.0,-10.35,-42.37,-42.31,0,*62
1515791166.12,12100,9.44,73626.3,-10.35,-42.75,-42.69,0,*68
1515791167.34,12101,9.44,73624.5,-10.35,-43.15,-42.75,0,*63
1515791168.61,12102,9.44,73626.3,-10.33,-42.95,-42.75,0,*6F
1515791169.88,12103,9.44,73626.5,-10.35,-42.57,-42.19,0,*6C
1515791171.09,12104,9.44,73626.0,-10.35,-42.51,-42.37,0,*61
1515791172.31,12105,9.44,73624.3,-10.35,-42.89,-42.51,0,*65
1515791173.57,12106,9.44,73626.5,-10.35,-42.69,-42.57,0,*6E
1515791174.81,12107,9.44,73626.8,-10.35,-42.75,-42.57,0,*62
1515791176.08,12108,9.44,73620.8,-10.37,-42.95,-42.75,0,*61
1515791177.3,12109,9.44,73624.0,-10.35,-42.89,-42.51,0,*69
1515791178.57,12110,9.44,73626.3,-10.37,-42.75,-42.57,0,*66
1515791179.8,12111,9.44,73620.8,-10.35,-42.75,-42.57,0,*65
1515791181.05,12112,9.44,73622.8,-10.35,-43.09,-42.75,0,*6C
1515791182.33,12113,9.44,73616.5,-10.37,-42.95,-42.63,0,*6C
1515791183.6,12114,9.44,73624.5,-10.35,-42.95,-42.69,0,*63
1515791184.86,12115,9.44,73620.0,-10.35,-42.95,-42.57,0,*6F
1515791186.16,12116,9.44,73618.5,-10.33,-42.95,-42.57,0,*6A
1515791187.39,12117,9.44,73618.8,-10.33,-43.15,-42.89,0,*61
1515791188.64,12118,9.44,73618.5,-10.35,-42.95,-42.75,0,*62
1515791189.89,12119,9.44,73618.0,-10.35,-42.95,-42.75,0,*63
1515791191.16,12120,9.44,73622.0,-10.35,-42.95,-42.69,0,*64
1515791192.43,12121,9.44,73622.3,-10.35,-42.95,-42.69,0,*65
1515791193.67,12122,9.44,73620.8,-10.35,-42.89,-42.57,0,*66
1515791194.96,12123,9.44,73622.8,-10.33,-42.95,-42.69,0,*61
1515791196.2,12124,9.44,73620.5,-10.35,-42.89,-42.69,0,*6D
1515791197.47,12125,9.44,73622.3,-10.37,-43.01,-42.83,0,*6B
1515791198.69,12126,9.44,73622.0,-10.35,-43.15,-42.89,0,*65
1515791199.91,12127,9.44,73620.8,-10.35,-42.89,-42.75,0,*63
1515791201.15,12128,9.44,73622.5,-10.35,-42.89,-42.69,0,*61
1515791202.36,12129,9.44,73616.8,-10.35,-43.15,-42.75,0,*69
1515791203.63,12130,9.44,73622.8,-10.37,-43.35,-42.95,0,*6F
1515791204.9,12131,9.44,73620.5,-10.35,-43.29,-43.09,0,*65
1515791206.12,12132,9.44,73622.0,-10.35,-43.15,-42.75,0,*63
1515791207.41,12133,9.44,73620.5,-10.37,-43.21,-42.95,0,*69
1515791208.68,12134,9.44,73618.0,-10.35,-43.29,-43.09,0,*60
1515791209.93,12135,9.44,73616.5,-10.35,-43.09,-42.75,0,*69
1515791211.14,12136,9.44,73616.8,-10.35,-43.15,-42.89,0,*64
1515791212.38,12137,9.44,73620.0,-10.37,-43.41,-43.15,0,*62
1515791213.63,12138,9.44,73616.8,-10.35,-43.55,-43.35,0,*68
1515791214.88,12139,9.44,73620.0,-10.37,-43.61,-43.41,0,*6F
1515791216.13,12140,9.44,73618.8,-10.37,-43.61,-43.35,0,*62
1515791217.38,12141,9.44,73616.0,-10.37,-43.61,-43.35,0,*63
1515791218.65,12142,9.44,73616.3,-10.37,-43.49,-43.21,0,*6F
1515791219.92,12143,9.44,73614.5,-10.37,-43.49,-43.21,0,*6E
1515791221.19,12144,9.44,73616.5,-10.37,-43.41,-43.21,0,*61
1515791222.49,12145,9.44,73620.0,-10.41,-43.55,-43.55,0,*67
1515791223.73,12146,9.44,73622.0,-10.43,-43.49,-43.29,0,*60
1515791225.0,12147,9.44,73622.3,-10.41,-43.41,-43.29,0,*6B
1515791226.27,12148,9.44,73620.5,-10.41,-43.29,-43.01,0,*60
1515791227.51,12149,9.44,73620.5,-10.43,-43.21,-42.89,0,*6A
1515791228.79,12150,9.44,73618.8,-10.41,-43.49,-43.09,0,*67
1515791230.05,12151,9.44,73624.0,-10.37,-43.41,-43.21,0,*65
1515791231.35,12152,9.44,73620.0,-10.41,-43.55,-43.21,0,*62
1515791232.62,12153,9.44,73622.5,-10.43,-43.55,-43.29,0,*69
1515791233.91,12154,9.44,73626.0,-10.41,-43.55,-43.21,0,*64
1515791235.16,12155,9.44,73622.5,-10.43,-43.67,-43.41,0,*60
1515791236.4,12156,9.44,73624.5,-10.43,-43.49,-43.21,0,*69
1515791237.65,12157,9.44,73624.0,-10.43,-43.41,-43.29,0,*68
1515791238.94,12158,9.44,73622.3,-10.41,-43.55,-43.29,0,*60
1515791240.22,12159,9.44,73626.8,-10.41,-43.41,-43.09,0,*66
1515791241.47,12160,9.44,73624.0,-10.43,-43.55,-43.41,0,*67
1515791242.71,12161,9.44,73626.0,-10.43,-43.55,-43.41,0,*66
1515791243.98,12162,9.44,73626.0,-10.43,-43.55,-43.29,0,*6B
1515791245.23,12163,9.44,73624.3,-10.43,-43.49,-43.29,0,*67
1515791246.47,12164,9.44,73620.8,-10.43,-43.49,-43.29,0,*60
1515791247.72,12165,9.44,73624.3,-10.43,-43.75,-43.55,0,*65
1515791248.97,12166,9.44,73622.3,-10.43,-43.75,-43.55,0,*66
1515791250.21,12167,9.44,73622.5,-10.43,-43.41,-43.29,0,*6B
1515791251.48,12168,9.44,73626.0,-10.47,-43.75,-43.55,0,*6C
1515791252.74,12169,9.44,73624.5,-10.45,-43.55,-43.21,0,*6E
1515791254.01,12170,9.44,73622.3,-10.43,-43.55,-43.29,0,*68
1515791255.25,12171,9.44,73620.5,-10.47,-43.75,-43.49,0,*69
1515791256.49,12172,9.44,73622.0,-10.47,-43.61,-43.49,0,*6F
1515791257.73,12173,9.44,73622.3,-10.45,-43.67,-43.41,0,*62
1515791259.0,12174,9.44,73616.5,-10.47,-43.75,-43.55,0,*61
1515791260.26,12175,9.44,73618.8,-10.47,-43.95,-43.55,0,*6E
1515791261.52,12176,9.44,73620.3,-10.47,-43.75,-43.55,0,*63
1515791262.74,12177,9.44,73620.3,-10.45,-43.75,-43.49,0,*6D
1515791263.98,12178,9.44,73620.5,-10.45,-43.55,-43.41,0,*68
1515791265.24,12179,9.44,73620.8,-10.47,-43.81,-43.49,0,*6A
1515791266.5,12180,9.44,73626.3,-10.47,-43.55,-43.49,0,*65
1515791267.76,12181,9.44,73626.5,-10.47,-43.49,-43.29,0,*6F
1515791269.0,12182,9.44,73626.5,-10.47,-43.49,-43.15,0,*63
1515791270.26,12183,9.44,73628.8,-10.47,-43.35,-43.09,0,*64
1515791271.52,12184,9.44,73626.5,-10.47,-43.35,-43.09,0,*63
1515791272.81,12185,9.44,73620.0,-10.47,-43.29,-42.95,0,*6B
1515791274.08,12186,9.44,73622.5,-10.49,-43.29,-43.09,0,*62
1515791275.32,12187,9.44,73618.5,-10.49,-43.49,-43.29,0,*67
1515791276.55,12188,9.44,73622.3,-10.47,-43.49,-43.15,0,*69
1515791277.8,12189,9.44,73624.5,-10.47,-43.61,-43.35,0,*60
1515791279.06,12190,9.44,73626.5,-10.47,-43.49,-43.09,0,*6D
1515791280.35,12191,9.44,73620.8,-10.47,-43.55,-43.55,0,*68
1515791281.61,12192,9.44,73620.0,-10.47,-43.55,-43.35,0,*6D
1515791282.85,12193,9.44,73622.0,-10.47,-43.49,-43.15,0,*63
1515791284.09,12194,9.44,73618.3,-10.47,-43.49,-43.35,0,*66
1515791285.35,12195,9.44,73616.5,-10.47,-43.49,-43.09,0,*68
1515791286.64,12196,9.44,73616.8,-10.47,-43.29,-42.95,0,*69
1515791287.9,12197,9.44,73620.3,-10.47,-43.15,-42.95,0,*67
1515791289.15,12198,9.44,73620.5,-10.47,-43.61,-43.35,0,*60
1515791290.39,12199,9.44,73618.8,-10.47,-43.61,-43.49,0,*6A
1515791291.6,12200,9.44,73618.0,-10.49,-43.49,-43.15,0,*64
1515791292.82,12201,9.44,73622.3,-10.49,-43.49,-43.15,0,*65
1515791294.06,12202,9.44,73618.8,-10.49,-43.55,-43.61,0,*68
1515791295.31,12203,9.44,73620.0,-10.49,-43.61,-43.55,0,*69
1515791296.58,12204,9.44,73616.5,-10.51,-43.67,-43.61,0,*66
1515791297.8,12205,9.44,73620.8,-10.49,-43.61,-43.49,0,*62
1515791299.02,12206,9.44,73622.0,-10.49,-43.61,-43.49,0,*61
1515791300.24,12207,9.44,73620.3,-10.49,-43.75,-43.61,0,*6F
1515791301.53,12208,9.44,73622.3,-10.51,-43.81,-43.67,0,*64